Theta_e
311 312 315 320 320 317 320 318 314 314 312 312 312 312 310 309 311 313 307 308 309 308 307 303 308 311 311 309 306 302 304 305 302 301 302 302 301 300 300 301 301 302 302 302 302 302 303 316 328
311 313 318 323 316 320 319 316 313 311 311 311 311 310 310 306 309 308 306 307 307 305 303 304 303 306 307 305 302 300 300 301 299 299 299 299 299 299 300 300 301 301 301 301 302 302 302 307 319
311 317 322 318 316 317 317 313 309 309 311 310 310 310 310 307 307 308 307 308 305 303 303 304 300 301 300 299 299 299 299 298 298 298 298 299 299 300 300 301 301 301 301 301 301 301 302 301 311
313 315 316 315 318 318 316 309 309 309 311 311 309 306 308 308 307 307 306 307 302 302 302 300 299 299 298 298 298 299 298 298 298 299 299 300 301 302 302 303 302 302 301 300 300 300 301 301 301
319 321 315 317 316 315 312 310 310 308 309 310 310 307 307 307 307 306 305 303 301 301 302 299 298 298 298 298 298 298 298 298 298 300 301 302 303 303 304 306 305 304 303 301 300 300 300 301 301
320 320 317 316 317 313 312 312 311 309 309 309 308 308 306 306 306 305 302 301 301 301 301 299 299 298 299 298 298 299 299 299 302 304 304 304 305 305 306 306 305 305 305 305 303 301 300 300 301
320 317 316 317 318 314 312 313 310 308 306 307 307 306 305 305 305 303 301 301 301 300 300 299 299 299 299 299 299 300 302 304 304 304 304 304 304 303 304 304 305 305 305 306 306 304 301 300 300
317 313 317 314 315 314 311 311 310 310 307 307 307 304 304 305 304 302 301 300 300 300 299 299 299 300 300 300 302 304 304 304 304 304 304 304 303 303 303 303 303 303 303 304 305 306 305 302 300
314 312 314 316 314 312 311 310 308 308 307 306 306 306 308 306 304 302 301 300 300 299 300 300 300 300 301 301 304 304 304 304 304 304 303 302 302 302 302 301 302 302 302 303 303 303 305 306 303
315 314 315 310 308 309 309 310 308 307 306 305 305 305 307 306 304 302 301 301 300 299 300 300 300 301 302 304 304 304 305 304 303 303 302 301 301 301 301 300 300 300 301 301 302 302 303 304 305
312 313 310 308 308 307 308 308 307 305 304 305 304 305 305 305 304 302 301 301 301 300 299 300 300 302 303 305 304 304 303 303 302 301 301 300 300 300 300 300 300 300 300 300 300 301 301 302 303
311 308 308 308 306 306 307 306 306 307 307 307 306 306 305 305 304 302 301 301 300 301 300 300 302 303 304 305 304 303 303 302 301 301 300 300 299 299 299 299 299 299 299 299 300 300 301 301 301
310 308 306 306 304 304 304 304 305 306 307 307 307 305 305 304 303 302 302 303 302 302 302 302 304 305 305 304 304 303 302 301 301 300 300 299 299 298 298 298 298 298 298 298 298 299 299 300 300
308 307 306 305 305 306 305 305 305 308 308 306 306 306 305 305 303 302 303 303 303 302 302 304 305 305 305 304 303 302 302 301 300 300 299 299 298 298 297 297 297 297 297 297 298 298 298 298 299
308 309 307 306 306 307 305 308 305 309 308 306 305 306 305 304 303 303 303 303 303 302 304 305 305 305 303 303 303 302 302 301 300 300 299 298 298 297 297 297 297 297 297 297 297 298 298 298 299
309 311 314 309 308 307 307 310 310 312 308 307 304 304 304 304 304 304 303 303 302 303 305 305 305 304 303 303 303 302 301 300 300 300 299 298 298 297 297 297 296 296 296 297 297 297 298 298 299
311 312 313 312 307 307 307 309 309 309 308 308 307 304 304 304 304 304 304 303 302 304 306 305 304 304 304 304 303 302 300 300 300 299 299 298 297 297 296 296 296 296 296 296 296 297 297 297 298
311 311 310 312 309 307 306 306 307 309 309 307 307 306 304 304 304 304 304 303 303 304 305 304 304 304 304 304 302 300 300 300 299 299 298 298 297 297 296 296 296 296 296 296 296 296 296 296 296
309 310 310 310 307 307 307 307 308 308 308 308 308 305 305 304 304 304 303 303 303 304 303 302 304 304 304 303 302 300 300 300 299 299 298 298 297 297 297 296 296 295 295 295 295 295 295 295 295
309 310 310 310 307 305 306 308 307 304 303 303 306 304 304 304 304 303 303 303 303 303 302 302 303 304 303 303 302 300 299 299 299 299 298 298 297 297 297 296 296 295 295 295 294 294 294 294 292
310 312 309 306 304 306 305 309 309 304 303 304 305 306 304 304 304 303 303 303 303 302 301 302 303 303 303 303 302 300 299 299 299 299 298 298 297 297 297 297 296 295 295 294 294 293 293 293 292
310 305 305 306 302 305 305 311 309 306 302 301 304 304 304 303 303 303 303 302 303 302 301 301 301 302 303 303 302 300 300 299 299 299 298 297 297 297 297 297 296 295 294 294 294 293 292 292 292
308 304 305 305 298 299 308 302 308 308 304 302 302 303 303 304 302 302 302 302 302 302 301 301 301 301 301 302 301 299 299 299 298 298 297 297 297 297 297 297 296 295 294 294 293 293 292 292 292
303 308 307 304 304 304 303 305 308 309 306 302 302 302 302 303 303 302 302 301 301 300 300 300 301 300 301 302 300 299 299 298 298 298 298 297 297 297 297 297 296 295 294 293 293 292 291 291 291
305 306 306 308 308 311 305 305 309 306 303 302 301 301 301 301 303 302 301 300 300 300 300 299 300 300 301 301 299 299 299 298 298 297 297 296 296 296 297 297 296 295 294 293 292 292 292 291 291
306 302 307 308 313 313 306 306 310 302 300 301 302 301 301 300 300 300 300 300 300 299 299 300 300 300 301 299 298 298 298 297 297 297 296 296 296 296 296 295 295 294 293 293 292 292 292 291 291
307 308 304 301 300 306 307 309 306 300 299 299 301 301 301 300 300 300 299 299 299 300 300 301 301 301 300 298 298 297 297 297 297 296 295 295 295 294 293 293 292 292 292 292 292 292 291 291 290
302 301 306 301 307 312 311 306 308 305 302 299 299 301 302 301 301 300 300 300 300 302 303 303 301 300 299 298 297 296 295 295 295 296 296 294 293 293 293 292 292 292 291 291 291 290 290 290 290
298 297 298 303 305 307 306 308 302 302 300 298 300 303 304 305 304 303 303 303 303 303 302 301 300 299 298 297 294 294 296 297 299 298 296 294 293 292 292 291 291 290 290 290 290 290 289 289 289
295 298 297 305 304 306 309 313 300 295 297 301 301 300 301 301 304 303 302 301 301 300 299 299 299 298 296 294 296 296 297 298 297 296 293 291 291 290 290 290 290 289 289 289 289 289 289 289 289
Wind_Speed
5 5 6 3 3 4 3 1 2 2 3 3 6 6 9 7 3 3 16 10 11 10 7 5 8 8 8 8 8 8 10 11 11 12 13 14 15 15 15 13 12 11 11 11 10 12 8 4 5
5 6 4 1 4 2 5 2 4 1 6 11 11 8 4 2 4 12 18 14 10 9 7 6 6 8 8 7 7 8 8 10 11 13 14 15 15 15 16 16 15 14 13 11 9 9 9 5 2
7 6 2 4 3 3 4 2 7 7 9 5 5 5 4 3 5 16 9 17 13 9 6 5 5 6 5 6 6 6 9 11 13 14 15 14 15 15 16 15 15 15 14 14 11 7 6 6 1
6 3 1 4 5 4 4 7 8 9 3 5 10 6 7 4 12 11 14 15 13 11 7 6 5 4 4 5 4 7 10 12 13 14 13 14 15 15 16 15 15 15 15 15 13 11 6 4 3
4 2 3 1 4 1 4 11 12 6 8 6 5 6 7 10 8 8 14 15 13 10 8 6 6 4 3 3 5 8 9 11 12 13 14 15 16 16 15 14 14 15 15 14 14 13 10 4 3
2 2 3 3 3 3 3 11 13 7 7 8 5 9 5 10 13 13 15 13 9 8 8 7 7 5 3 4 7 8 10 11 13 15 16 16 15 16 15 14 14 13 14 14 14 13 12 7 3
4 3 4 3 3 2 3 6 6 8 11 7 8 5 11 17 15 17 16 14 10 8 7 8 7 6 5 6 7 9 10 12 13 14 14 14 15 15 15 14 13 13 13 12 12 12 11 11 7
1 4 3 3 3 3 4 3 1 4 5 11 10 7 7 23 20 19 19 17 13 9 9 9 8 7 6 6 7 9 9 10 11 12 15 16 14 15 14 14 14 13 12 12 12 11 11 11 10
1 4 2 2 4 0 2 2 1 3 7 4 7 6 7 22 24 24 23 20 16 13 10 10 9 8 7 6 7 7 7 8 11 14 16 15 15 16 16 16 15 14 13 12 11 11 10 10 10
3 3 2 1 1 1 3 3 5 2 5 6 6 6 10 21 25 27 26 23 19 15 12 10 9 7 6 7 6 6 7 9 11 13 14 14 14 14 15 15 15 14 14 15 13 11 10 7 7
2 3 1 1 2 3 4 2 3 3 5 13 16 19 19 21 24 26 23 19 16 14 13 12 10 8 6 6 5 6 8 10 11 12 12 13 14 15 15 15 15 15 16 15 14 11 9 9 8
1 1 0 1 2 1 1 4 4 14 8 5 16 20 23 24 25 26 23 19 18 17 14 13 11 9 8 6 5 6 8 9 9 10 11 12 14 16 17 16 16 15 15 15 14 12 12 10 10
0 2 2 3 3 4 6 9 8 15 17 17 9 21 24 23 24 23 19 16 17 17 16 14 12 11 8 7 5 5 6 7 8 9 10 12 14 16 18 19 19 19 18 17 16 14 13 11 9
1 2 3 3 3 4 3 4 5 7 7 18 19 18 23 23 24 24 23 23 21 18 17 16 14 12 9 7 5 4 5 6 7 8 9 12 14 16 17 18 20 21 22 22 20 20 19 19 18
1 3 2 4 1 2 5 6 7 16 5 18 18 17 21 21 22 27 27 27 23 20 18 17 15 12 9 7 5 3 4 5 6 7 10 11 13 15 18 20 21 21 22 21 21 20 19 19 18
2 1 5 0 1 1 2 8 5 2 12 11 18 19 20 21 22 23 26 26 23 21 20 19 16 13 9 6 4 2 3 4 6 8 10 12 14 15 17 19 20 21 21 22 21 22 21 21 21
6 2 4 8 1 3 2 10 6 3 9 14 15 23 22 22 23 23 24 23 23 22 22 20 17 12 9 6 3 1 2 3 6 8 9 11 13 15 17 19 20 22 22 23 23 22 23 24 23
3 4 4 5 5 3 8 19 14 26 24 24 20 21 22 24 26 25 21 21 22 22 21 18 16 12 8 7 4 3 2 1 4 7 9 12 13 15 18 20 21 22 22 22 22 23 22 23 26
2 2 5 5 2 7 4 14 20 23 17 17 18 24 25 26 24 22 19 20 22 22 22 20 16 11 8 8 5 4 2 1 4 7 7 9 12 15 17 19 21 21 21 22 23 23 23 24 27
1 3 5 6 3 5 6 17 6 5 3 11 9 16 26 25 26 24 24 23 24 24 22 19 15 11 8 6 4 2 2 3 5 7 7 9 11 13 15 17 18 20 20 21 21 22 23 22 24
3 3 2 5 9 1 9 6 4 3 6 13 15 7 20 28 30 29 29 26 25 24 21 19 15 11 7 6 5 4 4 4 5 6 9 10 12 13 14 16 17 18 19 19 20 21 21 22 19
3 2 1 3 5 2 4 4 4 1 5 7 12 10 6 22 29 31 31 27 25 24 22 19 15 12 8 6 6 6 6 5 7 8 10 11 12 13 15 16 15 15 16 18 18 19 19 20 19
5 1 3 2 3 4 1 4 6 1 5 4 7 7 6 3 23 31 31 27 23 22 22 19 17 14 10 8 8 7 7 7 8 9 11 12 13 14 16 17 17 16 16 16 16 17 17 18 18
4 3 4 3 3 3 4 4 5 1 2 1 3 5 6 4 8 25 27 24 21 20 21 21 19 17 13 10 10 9 8 8 10 11 12 13 14 15 16 18 17 17 17 16 17 17 17 17 17
4 5 4 5 3 4 3 2 7 2 1 2 4 4 5 8 7 21 26 23 21 20 19 21 20 17 14 12 11 10 9 9 11 12 13 14 15 16 17 19 19 18 18 18 18 17 17 17 17
3 5 4 5 2 5 2 5 4 2 4 7 7 6 4 5 10 15 19 20 20 19 19 19 18 17 14 13 11 9 9 10 12 13 14 15 17 17 18 20 20 20 18 18 18 19 19 18 19
1 1 3 3 0 1 3 5 3 3 3 7 7 4 3 3 5 9 13 15 17 16 16 15 14 13 13 12 10 10 10 12 12 12 14 16 18 19 20 20 20 20 20 20 20 19 19 19 19
3 1 3 2 1 4 5 5 4 3 1 6 9 11 7 3 3 6 10 12 12 11 10 11 11 12 12 12 11 11 10 10 11 14 18 19 20 21 21 21 21 21 22 22 23 23 21 22 21
1 1 2 1 4 4 2 5 3 2 4 6 9 14 14 14 12 8 7 10 11 10 9 9 11 10 10 11 9 8 10 14 23 20 20 22 22 21 22 23 24 25 25 25 26 27 26 26 25
2 4 4 4 5 3 2 5 3 7 7 11 14 18 18 13 14 9 1 12 9 6 6 7 9 9 8 8 11 15 23 24 18 20 21 22 24 24 25 26 27 27 28 28 28 29 29 29 28
Wind_Direction
154 154 148 126 50 68 290 243 102 96 53 85 80 83 122 65 63 177 149 188 178 192 198 171 138 125 107 92 73 50 55 50 45 44 41 39 35 33 32 28 18 11 13 20 24 24 30 63 85
156 150 131 75 85 47 277 186 112 346 128 110 91 114 42 94 116 151 160 190 192 201 177 164 142 127 109 89 61 44 50 52 54 55 51 51 47 41 38 36 30 25 22 21 21 21 31 31 121
151 145 118 103 133 182 216 135 150 132 127 123 114 88 97 126 145 155 181 184 187 195 185 184 154 124 102 67 45 35 49 56 61 61 57 52 47 41 41 37 33 29 25 23 25 20 25 40 25
143 148 71 91 241 268 153 177 147 129 123 115 137 81 101 156 165 168 172 180 191 193 194 189 153 111 68 51 50 52 59 60 58 56 52 50 44 39 38 33 33 32 26 23 21 22 17 14 28
113 102 56 279 266 166 67 156 148 138 156 165 152 163 118 150 188 187 179 179 194 182 174 170 152 114 88 65 65 70 68 62 56 50 44 44 40 37 35 31 31 32 31 22 18 21 25 11 347
85 85 66 238 269 139 92 157 146 137 159 160 124 124 153 192 192 181 176 178 192 183 164 161 149 133 115 95 83 72 63 56 49 46 41 37 32 32 28 24 27 27 29 25 20 15 13 12 334
113 90 214 247 215 132 161 145 143 163 153 190 167 111 153 184 193 176 166 185 201 199 172 163 154 145 134 104 94 76 62 57 51 46 41 37 32 29 27 24 21 21 22 22 20 18 9 9 359
101 98 290 281 270 169 165 122 13 93 179 153 179 176 184 190 186 173 175 190 195 198 182 168 164 157 141 115 90 77 68 55 52 45 40 37 34 34 28 26 25 24 24 19 14 16 15 4 5
163 64 259 288 24 214 184 132 176 139 147 170 197 193 216 183 182 178 183 193 200 193 186 174 170 165 147 123 96 78 61 52 44 40 38 33 31 30 27 25 21 17 20 23 22 16 12 9 4
89 117 269 84 8 359 271 205 192 193 180 194 182 192 176 179 188 189 192 194 194 194 186 181 177 167 145 126 100 86 61 51 49 44 37 30 31 30 26 20 18 17 15 15 24 27 18 10 16
25 183 18 51 330 303 286 234 200 191 233 222 199 182 184 186 194 197 199 202 198 189 190 184 184 169 152 133 109 77 60 48 41 39 31 26 25 27 25 23 19 16 15 12 13 16 23 25 26
98 122 185 241 296 300 299 286 263 224 223 235 232 231 205 201 201 200 198 195 193 190 186 185 182 170 159 141 108 80 57 46 38 29 24 23 23 22 20 20 18 19 13 14 13 8 9 14 21
85 202 247 260 269 269 281 260 250 254 241 236 249 203 208 208 206 201 198 195 196 194 188 186 179 169 163 142 122 90 60 42 30 21 21 22 19 18 17 15 12 12 12 11 11 9 4 11 17
168 222 245 247 272 269 268 272 360 283 256 229 224 222 211 212 208 196 190 197 202 197 193 185 176 172 161 145 134 99 53 30 17 11 14 17 16 15 15 12 11 9 8 5 3 2 1 1 358
146 333 269 233 280 290 314 281 227 274 225 209 202 217 209 214 210 205 197 202 205 200 190 182 176 171 162 152 129 80 44 16 11 9 11 11 11 11 12 11 9 7 5 3 0 357 356 352 350
351 75 5 199 147 281 26 279 306 314 210 210 211 204 213 215 218 209 205 208 204 198 190 180 178 172 166 154 133 93 39 6 0 4 6 7 6 7 9 9 7 5 3 359 359 357 354 350 348
13 303 339 332 54 306 230 278 277 268 211 226 221 210 211 208 211 212 211 209 203 197 189 183 179 176 172 160 148 109 28 5 0 356 0 1 3 2 4 4 4 4 360 359 357 359 353 351 349
295 335 314 269 342 311 266 265 281 281 280 258 246 222 211 205 205 205 208 207 199 196 191 186 181 178 174 172 174 183 147 53 346 353 356 355 357 360 1 1 360 1 0 358 358 356 358 353 346
144 251 279 258 39 343 262 290 300 307 284 283 258 223 204 201 195 196 201 201 198 197 192 191 187 181 183 183 189 200 205 329 338 340 348 351 353 356 357 358 357 356 357 358 357 355 355 356 352
264 291 297 296 12 348 324 305 302 356 17 4 262 205 198 188 184 188 192 199 204 201 196 193 188 188 188 193 207 222 255 300 314 325 335 344 345 350 351 353 353 351 354 356 356 355 356 2 358
309 231 276 251 327 309 329 319 323 339 11 38 55 77 200 190 188 189 194 200 203 203 200 199 195 197 198 209 221 230 229 257 283 307 318 328 335 344 346 347 348 347 349 351 354 354 354 354 2
303 160 286 316 30 292 25 283 323 353 22 23 31 49 81 202 193 193 193 198 204 202 204 204 207 209 215 233 242 247 255 267 286 300 310 318 321 328 337 339 338 339 341 343 346 348 348 348 352
238 287 235 174 93 47 298 65 268 319 28 355 5 32 44 119 204 194 196 203 204 207 210 212 216 221 230 242 250 258 263 274 288 293 297 302 313 322 328 327 327 327 331 334 335 338 340 342 341
319 349 64 57 98 15 235 122 283 288 219 16 18 57 52 108 153 199 199 199 201 210 218 223 226 230 239 249 253 260 267 274 280 286 293 299 302 309 313 314 316 318 321 323 326 329 330 331 331
51 47 338 353 6 227 200 13 249 172 40 110 156 113 84 76 148 173 183 191 201 212 223 231 236 240 246 253 258 264 275 287 290 292 294 295 298 301 303 305 309 314 316 319 320 320 321 321 320
56 129 153 252 255 287 219 242 278 105 93 96 107 120 118 123 130 160 182 196 207 215 228 239 242 244 254 260 265 280 296 299 298 299 299 298 297 300 300 301 306 311 313 315 314 313 313 311 310
188 160 141 93 332 47 256 288 7 82 92 87 96 103 119 165 192 205 205 214 222 226 242 249 245 249 255 265 280 295 305 306 305 303 299 297 297 298 302 305 307 307 308 308 307 307 307 302 302
127 144 62 20 296 254 281 276 235 200 185 54 33 24 21 355 292 257 245 241 237 238 238 237 244 256 274 286 295 302 304 302 306 308 302 300 300 301 303 302 301 302 303 303 301 300 298 294 294
30 9 30 137 173 199 265 261 227 58 70 83 45 18 13 9 6 347 249 207 220 214 214 229 253 268 293 299 303 304 299 296 291 290 295 297 295 297 295 295 296 297 297 297 296 296 295 292 291
186 184 151 142 257 231 210 268 98 139 130 52 32 15 7 353 286 297 323 160 172 182 202 238 271 292 294 282 286 283 279 288 293 295 292 294 295 295 295 295 294 294 294 294 293 294 293 292 290